Погода в Гуляй-Борисовке

Россия / Ростовская область     46°37′37″N   40°12′42″E
темп.,
°C
ветер,
м/с
пор.,
м/с
влажн.,
%
обл.,
%
осадки,
мм/ч
давл.,
гПа
погр.,
м
13 апреля, вт
вт1300:00+9з2395100 0.3 1022104
03:00+9зсз2495100 0.3 1022164
06:00+9зюз3496100 0.0 1022187
09:00+10з2288100 0.0 1022247
12:00+11ююв1184100 0.0 1023416
15:00+12ююв2279100 0.0 1023579
18:00+12ююз1183100 0.0 102239
21:00+10ссз2289100 0.0 102136
14 апреля, ср
ср1400:00+10с3492100 0.0 1020118
03:00+9с3794100 0.1 1018161
06:00+8зсз2295100 0.1 101831
09:00+13ссз228275 0.1 1017464
12:00+17с1252100 0.0 10161422
15:00+18з324668 0.0 10151909
18:00+14з477668 0.8 1016369
21:00+10з37925 0.8 1017169
15 апреля, чт
чт1500:00+9з368894 0.0 1017107
03:00+8з228954 0.0 101736
06:00+7юз11895 0.0 101710
09:00+13ююз34725 0.0 1017452
12:00+17ююз445275 0.0 10171233
15:00+18юз455012 0.0 10161632
18:00+14зсз577575 0.6 1017320
21:00+11зюз22829 0.6 101715
16 апреля, пт
пт1600:00+10зюз238976 0.0 101739
03:00+9зюз239548 0.0 101743
06:00+7зюз348664 0.0 101876
09:00+12з33717 0.0 1018460
12:00+16зюз345591 0.0 10181194
15:00+12з7780100 0.7 1019541
18:00+10з1389100 6.4 1019279
21:00+9з2293100 7.1 102025
17 апреля, сб
сб1700:00+9юз2494100 0.9 1020192
03:00+8з378898 1.5 1021238
06:00+6з33875 0.0 102266
09:00+10зюз23744 0.0 1021599
12:00+14з345361 0.1 10231714
15:00+13зюз3358100 0.1 10231176
18:00+13сз1159100 0.0 102345
21:00+9с22703 0.0 102318